Regional Weather Roundup
Issued by NWS

Home | Current Version | Previous Version | Graphics & Text | Print | Product List | Glossary On
Versions: 1 2 3 4 5 6 7 8 9 10 11 12 13 14 15 16 17 18 19 20 21 22 23 24 25 26 27 28 29 30 31 32 33 34 35 36 37 38 39 40 41 42 43 44 45 46 47 48 49 50
587
ASUS43 KLOT 272008
RWRIL

ILLINOIS REGIONAL WEATHER ROUNDUP
NATIONAL WEATHER SERVICE CHICAGO/ROMEOVILLE IL
300 PM CDT MON MAR 27 2017

NOTE: "FAIR" INDICATES FEW OR NO CLOUDS BELOW 12,000 FEET WITH NO
SIGNIFICANT WEATHER AND/OR OBSTRUCTIONS TO VISIBILITY.

* THESE STATIONS ARE NOT UNDER NWS QUALITY CONTROL. THEY ALSO MAY NOT
  REPORT WEATHER SUCH AS PRECIPITATION OR FOG.

ILZ001-002-007-009-015-016-024-272100-
NORTHWEST ILLINOIS

CITY           SKY/WX    TMP DP  RH WIND       PRES   REMARKS
MOLINE         CLOUDY    52  46  80 N5        29.90F
STERLING*      CLOUDY    52  48  86 NE5       29.91F
SAVANNA*       CLOUDY    50  46  85 W3        29.92F
$$

ILZ003-004-008-010-011-017-018-272100-
NORTH CENTRAL ILLINOIS

CITY           SKY/WX    TMP DP  RH WIND       PRES   REMARKS
ROCKFORD       CLOUDY    52  44  74 CALM      29.94S
FREEPORT*      CLOUDY    48  44  86 CALM      29.94S
ROCHELLE*      CLOUDY    50  47  90 CALM      29.91F FOG
DE KALB*       CLOUDY    50  48  95 E3        29.91F FOG
PERU*          CLOUDY    51  47  87 CALM      29.90S FOG
$$

ILZ005-006-012>014-019>023-272100-
NORTHEAST ILLINOIS

CITY           SKY/WX    TMP DP  RH WIND       PRES   REMARKS
CHICAGO-OHARE  CLOUDY    50  43  77 NE9       29.90F
CHICAGO-MIDWAY CLOUDY    48  44  86 NE6       29.91F
AURORA         CLOUDY    51  48  89 NE8       29.90F FOG
LANSING*       LGT RAIN  47  46  97 N7        29.92R
JOLIET*        LGT RAIN  55  50  83 CALM      29.90S
WAUKEGAN       CLOUDY    43  41  93 E5        29.93S
DUPAGE AIRPORT CLOUDY    48  48 100 NE7       29.90F FOG
KANKAKEE*      CLOUDY    56  51  82 CALM      29.89F
WHEELING       CLOUDY    45  43  93 E6        29.92F
MORRIS*        LGT RAIN  54  49  85 CALM      29.89S
ROMEOVILLE*    CLOUDY    51  50  93 E7        29.90S
NORTHERLY ISL    N/A     41  40  96 N9          N/A
$$

LMZ740>746-272100-
SOUTHERN LAKE MICHIGAN

STATION/POSITION SKY/WX   TEMP    WIND        PRES    VSBY  WAVE
                          AIR SEA DIR/SP/G                  HT/PER
                          (F)     (DEG/KT/KT) (MB)    (MI)  (FT/S)
HARRISON CRIB              40      20/  7/  7   N/A
BURNHAM HARBOR             41      10/  7/  8   N/A
CALUMET HARBOR             42     360/  5/  7 1012.6F
BURNS HARBOR               41      60/  5/  8 1013.9F
MICHIGAN CITY              40      30/  9/  9   N/A
$$

ILZ025>027-034>036-040-047-049-050-058-095>099-272100-
WEST-CENTRAL ILLINOIS

CITY           SKY/WX    TMP DP  RH WIND       PRES   REMARKS
QUINCY         CLOUDY    54  51  90 NE8       29.85S
GALESBURG*     DRIZZLE   52  49  89 CALM      29.88F
MACOMB*        CLOUDY    53  52  95 NE5       29.89F
JACKSONVILLE*  DRIZZLE   55  53  94 NE9       29.85F
PITTSFIELD*    CLOUDY    54  52  94 NE7       29.86S
$$

ILZ028>032-037-038-041>044-048-051>054-059>061-272100-
CENTRAL ILLINOIS

CITY           SKY/WX    TMP DP  RH WIND       PRES   REMARKS
PONTIAC        LGT RAIN  55  54  96 E5        29.89F
BLOOMINGTON    LGT RAIN  54  51  90 E8        29.88F
DECATUR        CLOUDY    59  51  75 E12       29.83F
PEORIA         LGT RAIN  54  52  93 E6        29.87F
LACON*         DRIZZLE   53  50  89 NE3       29.87F
LINCOLN*       CLOUDY    55  54  95 NE8       29.85F
SPRINGFIELD    LGT RAIN  56  53  90 NE9       29.85F FOG
TAYLORVILLE    DRIZZLE   55  54  94 NE8       29.82F
$$

ILZ033-039-045-046-055>057-062-063-272100-
EAST-CENTRAL ILLINOIS

CITY           SKY/WX    TMP DP  RH WIND       PRES   REMARKS
CHAMPAIGN      CLOUDY    61  51  70 E12       29.84F
RANTOUL*       CLOUDY    60  53  77 NE9       29.86F
MATTOON        CLOUDY    56  56 100 E7        29.81F
PARIS*         LGT RAIN  55  54  94 E8        29.85F
$$

ILZ079-100>102-272100-
SOUTHWEST ILLINOIS

CITY           SKY/WX    TMP DP  RH WIND       PRES   REMARKS
ALTON          CLOUDY    54  52  94 N12       29.82F FOG
BELLEVILLE     CLOUDY    55  55 100 W7        29.80F
CAHOKIA*       CLOUDY    58  52  80 NW8       29.81F
SPARTA*        CLOUDY    58  56  91 NW3       29.81F
$$

ILZ064>066-069>071-074>076-080>082-084>086-088>090-092>094-272100-
SOUTH-CENTRAL ILLINOIS

CITY           SKY/WX    TMP DP  RH WIND       PRES   REMARKS
CARBONDALE     CLOUDY    60  57  89 SW7       29.81F
CAIRO*         CLOUDY    57  57  99 SE7       29.79F THUNDER
EFFINGHAM*     CLOUDY    61  59  92 E8        29.81F
MARION         CLOUDY    61  61 100 SW6       29.81
MT. VERNON     CLOUDY    64  55  72 SW12      29.80F
CENTRALIA*     CLOUDY    63  57  82 SW10      29.79F
SALEM*         CLOUDY    64  55  75 SW7       29.80F
METROPOLIS*    LGT RAIN  58  57  96 S6        29.82F
$$

ILZ067-068-072-073-078-083-087-091-272100-
SOUTHEAST ILLINOIS

CITY           SKY/WX    TMP DP  RH WIND       PRES   REMARKS
LAWRENCEVILLE  PTSUNNY   67  57  70 VRB6      29.81F
FLORA*         CLOUDY    66  56  72 SW10      29.80F
FAIRFIELD*     CLOUDY    65  55  68 SW7       29.79F
HARRISBURG*    LGT RAIN  60  58  92 S5        29.82F
ROBINSON*      CLOUDY    61  56  82 SE6       29.83F
CARMI*         LGT RAIN  62  58  88 S8        29.81F
$$

ABBREVIATIONS USED IN REMARKS
   TC - TEMPERATURE IN CELSIUS
  WCI - WIND CHILL INDEX
   HX - HEAT INDEX
  VSB - VISIBILITY
$$





USA.gov is the U.S. government's official web portal to all federal, state and local government web resources and services.